Weather History for Omaha Offutt, NE

Change the Weather History Date:

Friday, January 25, 2013

  Actual Average Record
Temperature  
Mean Temperature 29 °F -  
Max Temperature 47 °F 31 °F 60 °F (2002)
Min Temperature 11 °F 15 °F -2 °F (1997)
Degree Days  
Heating Degree Days 36    
Moisture  
Dew Point 17 °F    
Average Humidity 65    
Maximum Humidity 89    
Minimum Humidity 41    
Precipitation  
Precipitation 0.00 in - - ()
Sea Level Pressure  
Sea Level Pressure 30.21 in    
Wind  
Wind Speed 5 mph (WNW)    
Max Wind Speed 14 mph    
Max Gust Speed -    
Visibility 10 miles    
Events      
Averages and records for this station are not official NWS values.
T = Trace of Precipitation, MM = Missing Value Source: NWS Daily Summary

Daily Weather History Graph

Daily Weather History Graph

Search for Another Location

Airport:

Trip Planner

Search our weather history database for the weather conditions in past years. The results will help you decide how hot, cold, wet, or windy it might be!

Date:

Astronomy

Jan. 25, 2013 Rise Set
Actual Time 7:40 AM CST 5:32 PM CST
Civil Twilight 7:10 AM CST 6:01 PM CST
Nautical Twilight 6:37 AM CST 6:35 PM CST
Astronomical Twilight 6:04 AM CST 7:07 PM CST
Moon 4:30 PM CST (1/25) 6:20 AM CST (1/25)
Length of Visible Light 10h 50m
Length of Day
9h 51m
Waxing Gibbous, 98% of the Moon is Illuminated
Jan 25
Waxing Gibbous
Jan 26
Full
Feb 3
Last Quarter
Feb 10
New
Feb 17
First Quarter

Hourly Weather History & Observations

Time (CST) Temp. Windchill Dew Point Humidity Pressure Visibility Wind Dir Wind Speed Gust Speed Precip Events Conditions
12:55 AM 14.7 °F - 6.6 °F 70% 30.23 in 10.0 mi Calm Calm - N/A   Scattered Clouds
1:55 AM 12.4 °F 4.6 °F 7.0 °F 79% 30.21 in 10.0 mi SSE 4.6 mph - N/A   Clear
2:55 AM 15.4 °F 9.8 °F 6.1 °F 67% 30.20 in 10.0 mi SSW 3.5 mph - N/A   Clear
3:55 AM 15.8 °F 10.2 °F 6.4 °F 67% 30.18 in 10.0 mi WSW 3.5 mph - N/A   Clear
4:55 AM 11.7 °F - 5.7 °F 77% 30.18 in 10.0 mi Calm Calm - N/A   Clear
5:55 AM 14.5 °F - 6.3 °F 70% 30.19 in 10.0 mi Calm Calm - N/A   Clear
6:55 AM 13.3 °F 5.6 °F 6.3 °F 74% 30.19 in 10.0 mi WNW 4.6 mph - N/A   Clear
7:55 AM 11.7 °F - 6.4 °F 80% 30.20 in 10.0 mi Calm Calm - N/A   Clear
8:55 AM 19.0 °F 13.9 °F 9.9 °F 67% 30.21 in 10.0 mi WNW 3.5 mph - N/A   Clear
9:55 AM 25.9 °F 16.6 °F 14.4 °F 62% 30.22 in 10.0 mi West 9.2 mph - N/A   Clear
10:55 AM 33.1 °F 26.1 °F 18.3 °F 55% 30.22 in 10.0 mi WNW 8.1 mph - N/A   Clear
11:55 AM 40.3 °F 33.9 °F 23.2 °F 51% 30.22 in 10.0 mi NW 10.4 mph - N/A   Clear
12:55 PM 43.0 °F 36.8 °F 23.7 °F 47% 30.19 in 10.0 mi WNW 11.5 mph - N/A   Clear
1:55 PM 45.7 °F 40.2 °F 23.9 °F 42% 30.18 in 10.0 mi WNW 11.5 mph - N/A   Clear
2:55 PM 47.5 °F - 24.8 °F 41% 30.17 in 10.0 mi WNW 13.8 mph - N/A   Clear
3:55 PM 47.8 °F - 25.2 °F 41% 30.18 in 10.0 mi WNW 9.2 mph - N/A   Clear
4:55 PM 44.4 °F 38.6 °F 23.7 °F 44% 30.20 in 10.0 mi WNW 11.5 mph - N/A   Clear
5:55 PM 34.2 °F 27.5 °F 22.3 °F 62% 30.22 in 10.0 mi NW 8.1 mph - N/A   Clear
6:55 PM 30.0 °F 25.2 °F 22.6 °F 74% 30.24 in 10.0 mi NW 4.6 mph - N/A   Clear
7:55 PM 34.3 °F 27.7 °F 24.3 °F 67% 30.24 in 10.0 mi North 8.1 mph - N/A   Clear
8:55 PM 28.8 °F 23.7 °F 22.8 °F 78% 30.26 in 10.0 mi NNW 4.6 mph - N/A   Clear
9:55 PM 29.7 °F - 23.2 °F 77% 30.27 in 10.0 mi Calm Calm - N/A   Clear
10:55 PM 25.2 °F 19.5 °F 22.3 °F 89% 30.27 in 10.0 mi NNE 4.6 mph - N/A   Clear
11:55 PM 26.4 °F 16.6 °F 21.6 °F 82% 30.28 in 10.0 mi NE 10.4 mph - N/A   Clear